ARG1546 SABE-SACO

Flight info

Callsign ARG1546
Flight time 1h 5m
Altitude 36000
Route ATOVO4B ATOVO UW5 ASISA ASISA1Q
Aircraft B738/M-SDE2E3FGHIRWXY/LB1

Departure

Time 2026-05-03 20:53
Airport Aeroparque Jorge Newbery (SABE)

Arrival

Time 2026-05-03 21:59
Airport Ingeniero Aeronáutico Ambrosio L.V. Taravella International Airport (SACO)
Time Latitude Longitude Altitude Speed Heading
2026-05-03 20:21 -34.55854 -58.41174 32 ft 0 kts 44°
2026-05-03 20:41 -34.55858 -58.41178 26 ft 3 kts 43°
2026-05-03 20:41 -34.55870 -58.41201 30 ft 4 kts 94°
2026-05-03 20:41 -34.55862 -58.41230 30 ft 3 kts 129°
2026-05-03 20:42 -34.55857 -58.41237 32 ft 0 kts 130°
2026-05-03 20:45 -34.55858 -58.41236 32 ft 1 kts 131°
2026-05-03 20:45 -34.55874 -58.41260 27 ft 10 kts 244°
2026-05-03 20:45 -34.55941 -58.41262 27 ft 13 kts 134°
2026-05-03 20:45 -34.56005 -58.41163 28 ft 17 kts 127°
2026-05-03 20:46 -34.56078 -58.41045 26 ft 17 kts 127°
2026-05-03 20:46 -34.56146 -58.40929 28 ft 17 kts 117°
2026-05-03 20:46 -34.56181 -58.40802 26 ft 16 kts 124°
2026-05-03 20:46 -34.56242 -58.40692 30 ft 15 kts 123°
2026-05-03 20:47 -34.56301 -58.40585 28 ft 15 kts 124°
2026-05-03 20:47 -34.56317 -58.40557 27 ft 0 kts 124°
2026-05-03 20:48 -34.56317 -58.40556 27 ft 1 kts 124°
2026-05-03 20:48 -34.56349 -58.40511 28 ft 9 kts 137°
2026-05-03 20:49 -34.56395 -58.40463 29 ft 9 kts 139°
2026-05-03 20:49 -34.56409 -58.40449 26 ft 0 kts 139°
2026-05-03 20:50 -34.56410 -58.40447 30 ft 0 kts 139°
2026-05-03 20:50 -34.56411 -58.40447 30 ft 0 kts 139°
2026-05-03 20:51 -34.56469 -58.40386 28 ft 16 kts 140°
2026-05-03 20:51 -34.56560 -58.40408 24 ft 13 kts 250°
2026-05-03 20:51 -34.56525 -58.40495 24 ft 0 kts 303°
2026-05-03 20:53 -34.56510 -58.40524 27 ft 24 kts 303°
2026-05-03 20:53 -34.56229 -58.41026 26 ft 116 kts 304°
2026-05-03 20:53 -34.55649 -58.42076 312 ft 165 kts 303°
2026-05-03 20:53 -34.55052 -58.43163 1694 ft 148 kts 313°
2026-05-03 20:54 -34.54127 -58.43896 2315 ft 174 kts 338°
2026-05-03 20:54 -34.51371 -58.43968 3040 ft 234 kts 25°
2026-05-03 20:54 -34.49906 -58.42888 3485 ft 255 kts 28°
2026-05-03 20:55 -34.48372 -58.41739 4353 ft 262 kts 28°
2026-05-03 20:55 -34.46802 -58.40554 4866 ft 267 kts 28°
2026-05-03 20:55 -34.45224 -58.39363 5077 ft 268 kts 28°
2026-05-03 20:55 -34.43640 -58.38170 5098 ft 268 kts 28°
2026-05-03 20:56 -34.42048 -58.36973 5146 ft 273 kts 28°
2026-05-03 20:56 -34.40390 -58.35813 5773 ft 276 kts 18°
2026-05-03 20:56 -34.38545 -58.35516 6776 ft 267 kts 348°
2026-05-03 20:56 -34.36805 -58.36188 7738 ft 262 kts 328°
2026-05-03 20:57 -34.35317 -58.37446 8649 ft 262 kts 311°
2026-05-03 20:57 -34.34404 -58.39331 9590 ft 261 kts 293°
2026-05-03 20:57 -34.33664 -58.41353 10450 ft 267 kts 292°
2026-05-03 20:57 -34.32887 -58.43497 10750 ft 292 kts 292°
2026-05-03 20:58 -34.32039 -58.45835 11114 ft 312 kts 292°
2026-05-03 20:58 -34.31150 -58.48267 11771 ft 320 kts 292°
2026-05-03 20:58 -34.30239 -58.50746 12531 ft 325 kts 292°
2026-05-03 20:58 -34.29327 -58.53213 13410 ft 325 kts 292°
2026-05-03 20:59 -34.28402 -58.55708 14275 ft 326 kts 292°
2026-05-03 20:59 -34.27468 -58.58221 15020 ft 329 kts 291°
2026-05-03 20:59 -34.26525 -58.60754 15773 ft 332 kts 291°
2026-05-03 20:59 -34.25573 -58.63309 16519 ft 335 kts 291°
2026-05-03 21:00 -34.24608 -58.65894 17249 ft 338 kts 291°
2026-05-03 21:00 -34.23953 -58.67649 17754 ft 340 kts 291°
2026-05-03 21:00 -34.22651 -58.71132 18630 ft 346 kts 290°
2026-05-03 21:00 -34.21656 -58.73791 19253 ft 349 kts 290°
2026-05-03 21:01 -34.20653 -58.76471 19885 ft 352 kts 290°
2026-05-03 21:01 -34.19968 -58.78298 20334 ft 354 kts 290°
2026-05-03 21:01 -34.17498 -58.84879 21781 ft 362 kts 290°
2026-05-03 21:02 -34.16452 -58.87663 22307 ft 366 kts 290°
2026-05-03 21:02 -34.15393 -58.90480 22882 ft 370 kts 290°
2026-05-03 21:02 -34.14325 -58.93317 23069 ft 373 kts 290°
2026-05-03 21:02 -34.13255 -58.96153 23089 ft 371 kts 290°
2026-05-03 21:03 -34.12184 -58.98991 23099 ft 373 kts 290°
2026-05-03 21:03 -34.11102 -59.01863 23397 ft 379 kts 290°
2026-05-03 21:03 -34.10016 -59.04736 24033 ft 377 kts 290°
2026-05-03 21:03 -34.08928 -59.07613 24655 ft 376 kts 290°
2026-05-03 21:04 -34.07840 -59.10489 25143 ft 379 kts 290°
2026-05-03 21:04 -34.06732 -59.13391 25580 ft 383 kts 291°
2026-05-03 21:04 -34.05369 -59.16185 26008 ft 392 kts 300°
2026-05-03 21:04 -34.03647 -59.18762 26461 ft 397 kts 304°
2026-05-03 21:05 -34.01876 -59.21286 26861 ft 401 kts 304°
2026-05-03 21:05 -34.00040 -59.23887 27289 ft 404 kts 304°
2026-05-03 21:05 -33.98219 -59.26476 27716 ft 406 kts 304°
2026-05-03 21:05 -33.96394 -59.29080 28141 ft 408 kts 303°
2026-05-03 21:06 -33.94560 -59.31707 28544 ft 411 kts 303°
2026-05-03 21:06 -33.92716 -59.34351 28977 ft 413 kts 303°
2026-05-03 21:06 -33.90871 -59.37001 29394 ft 415 kts 303°
2026-05-03 21:06 -33.89016 -59.39663 29839 ft 416 kts 303°
2026-05-03 21:07 -33.87181 -59.42293 30321 ft 414 kts 303°
2026-05-03 21:07 -33.85308 -59.44976 30801 ft 412 kts 303°
2026-05-03 21:07 -33.83466 -59.47613 31235 ft 411 kts 303°
2026-05-03 21:07 -33.81653 -59.50209 31649 ft 410 kts 303°
2026-05-03 21:08 -33.79793 -59.52869 32108 ft 409 kts 302°
2026-05-03 21:08 -33.77990 -59.55446 32559 ft 407 kts 302°
2026-05-03 21:08 -33.76167 -59.58051 32985 ft 406 kts 302°
2026-05-03 21:08 -33.74350 -59.60647 33368 ft 406 kts 302°
2026-05-03 21:09 -33.72536 -59.63233 33872 ft 402 kts 302°
2026-05-03 21:09 -33.70739 -59.65793 34283 ft 400 kts 302°
2026-05-03 21:09 -33.68942 -59.68354 34515 ft 402 kts 302°
2026-05-03 21:09 -33.67136 -59.70921 34797 ft 403 kts 302°
2026-05-03 21:10 -33.65325 -59.73489 35150 ft 401 kts 302°
2026-05-03 21:10 -33.63527 -59.76034 35513 ft 399 kts 302°
2026-05-03 21:10 -33.61729 -59.78579 35829 ft 399 kts 302°
2026-05-03 21:10 -33.59935 -59.81119 36071 ft 400 kts 302°
2026-05-03 21:11 -33.56303 -59.86267 36064 ft 405 kts 302°
2026-05-03 21:11 -33.52685 -59.91369 36063 ft 396 kts 302°
2026-05-03 21:12 -33.49699 -59.95580 36058 ft 395 kts 302°
2026-05-03 21:12 -33.46140 -60.00599 36058 ft 395 kts 302°
2026-05-03 21:13 -33.42605 -60.05578 36064 ft 395 kts 302°
2026-05-03 21:13 -33.39037 -60.10595 36061 ft 397 kts 302°
2026-05-03 21:14 -33.35405 -60.15705 36069 ft 409 kts 302°
2026-05-03 21:14 -33.31670 -60.20945 36055 ft 417 kts 302°
2026-05-03 21:15 -33.27897 -60.26216 36050 ft 418 kts 302°
2026-05-03 21:15 -33.24117 -60.31492 36046 ft 417 kts 302°
2026-05-03 21:16 -33.20511 -60.36521 36024 ft 416 kts 302°
2026-05-03 21:16 -33.16913 -60.41530 36037 ft 410 kts 302°
2026-05-03 21:17 -33.13200 -60.46700 36044 ft 409 kts 302°
2026-05-03 21:17 -33.09498 -60.51847 36047 ft 408 kts 302°
2026-05-03 21:18 -33.05800 -60.56981 36044 ft 408 kts 302°
2026-05-03 21:18 -33.02100 -60.62109 36038 ft 408 kts 302°
2026-05-03 21:19 -32.98404 -60.67225 36049 ft 408 kts 302°
2026-05-03 21:19 -32.94696 -60.72352 36050 ft 408 kts 302°
2026-05-03 21:20 -32.90990 -60.77485 36047 ft 408 kts 301°
2026-05-03 21:20 -32.88011 -60.83029 36050 ft 399 kts 292°
2026-05-03 21:21 -32.85236 -60.88735 36051 ft 399 kts 292°
2026-05-03 21:21 -32.82441 -60.94442 36038 ft 400 kts 292°
2026-05-03 21:22 -32.79622 -61.00151 36039 ft 400 kts 293°
2026-05-03 21:22 -32.76794 -61.05856 36035 ft 400 kts 293°
2026-05-03 21:23 -32.73964 -61.11553 36031 ft 400 kts 293°
2026-05-03 21:23 -32.71137 -61.17236 36018 ft 399 kts 293°
2026-05-03 21:24 -32.68313 -61.22902 36028 ft 398 kts 293°
2026-05-03 21:24 -32.65492 -61.28557 36030 ft 398 kts 293°
2026-05-03 21:25 -32.62671 -61.34203 36020 ft 397 kts 293°
2026-05-03 21:25 -32.59854 -61.39832 36028 ft 397 kts 293°
2026-05-03 21:26 -32.57037 -61.45452 36027 ft 396 kts 293°
2026-05-03 21:26 -32.54222 -61.51060 36013 ft 395 kts 293°
2026-05-03 21:27 -32.51410 -61.56654 36027 ft 395 kts 293°
2026-05-03 21:27 -32.48594 -61.62248 36025 ft 395 kts 293°
2026-05-03 21:28 -32.45777 -61.67835 36027 ft 395 kts 293°
2026-05-03 21:28 -32.42956 -61.73423 36029 ft 396 kts 294°
2026-05-03 21:29 -32.40131 -61.79009 36024 ft 396 kts 294°
2026-05-03 21:29 -32.37518 -61.84168 36026 ft 394 kts 294°
2026-05-03 21:30 -32.34693 -61.89743 36033 ft 396 kts 294°
2026-05-03 21:30 -32.31848 -61.95345 36027 ft 398 kts 294°
2026-05-03 21:31 -32.28979 -62.00989 35642 ft 401 kts 294°
2026-05-03 21:31 -32.27548 -62.03794 35233 ft 396 kts 294°
2026-05-03 21:31 -32.26133 -62.06565 34840 ft 392 kts 294°
2026-05-03 21:32 -32.24729 -62.09316 34383 ft 390 kts 294°
2026-05-03 21:32 -32.23334 -62.12052 33884 ft 389 kts 294°
2026-05-03 21:32 -32.21939 -62.14786 33328 ft 388 kts 294°
2026-05-03 21:32 -32.20552 -62.17504 32856 ft 385 kts 294°
2026-05-03 21:33 -32.19172 -62.20202 32424 ft 382 kts 294°
2026-05-03 21:33 -32.17802 -62.22880 31985 ft 380 kts 294°
2026-05-03 21:33 -32.16442 -62.25537 31588 ft 376 kts 294°
2026-05-03 21:33 -32.15093 -62.28170 31169 ft 374 kts 294°
2026-05-03 21:34 -32.13752 -62.30787 30721 ft 372 kts 294°
2026-05-03 21:34 -32.12414 -62.33397 30291 ft 371 kts 294°
2026-05-03 21:34 -32.11080 -62.35998 29843 ft 369 kts 295°
2026-05-03 21:34 -32.09774 -62.38541 29390 ft 366 kts 295°
2026-05-03 21:35 -32.08655 -62.40718 29020 ft 363 kts 295°
2026-05-03 21:35 -32.07350 -62.43253 28573 ft 361 kts 295°
2026-05-03 21:35 -32.06054 -62.45773 28105 ft 358 kts 295°
2026-05-03 21:35 -32.04747 -62.48311 27661 ft 356 kts 295°
2026-05-03 21:36 -32.03484 -62.50763 27233 ft 354 kts 295°
2026-05-03 21:36 -32.02209 -62.53236 26806 ft 352 kts 295°
2026-05-03 21:36 -32.00944 -62.55690 26320 ft 351 kts 295°
2026-05-03 21:36 -31.99678 -62.58143 25940 ft 349 kts 295°
2026-05-03 21:37 -31.98422 -62.60573 25549 ft 346 kts 295°
2026-05-03 21:37 -31.97177 -62.62981 25186 ft 343 kts 295°
2026-05-03 21:37 -31.95941 -62.65370 24819 ft 340 kts 295°
2026-05-03 21:37 -31.94717 -62.67735 24467 ft 337 kts 295°
2026-05-03 21:38 -31.93498 -62.70089 24119 ft 335 kts 295°
2026-05-03 21:38 -31.92291 -62.72418 23771 ft 332 kts 295°
2026-05-03 21:38 -31.91090 -62.74735 23397 ft 330 kts 295°
2026-05-03 21:38 -31.89898 -62.77032 22978 ft 328 kts 295°
2026-05-03 21:39 -31.88717 -62.79307 22658 ft 324 kts 295°
2026-05-03 21:39 -31.87548 -62.81557 22309 ft 321 kts 296°
2026-05-03 21:39 -31.86390 -62.83785 21971 ft 318 kts 296°
2026-05-03 21:39 -31.85242 -62.85992 21640 ft 315 kts 296°
2026-05-03 21:40 -31.84105 -62.88179 21298 ft 312 kts 296°
2026-05-03 21:40 -31.82975 -62.90349 20971 ft 310 kts 296°
2026-05-03 21:40 -31.81854 -62.92502 20643 ft 308 kts 296°
2026-05-03 21:40 -31.80739 -62.94641 20320 ft 306 kts 296°
2026-05-03 21:41 -31.79633 -62.96763 20001 ft 304 kts 296°
2026-05-03 21:41 -31.78532 -62.98874 19683 ft 302 kts 296°
2026-05-03 21:41 -31.77437 -63.00972 19360 ft 300 kts 297°
2026-05-03 21:41 -31.76348 -63.03058 19044 ft 299 kts 297°
2026-05-03 21:42 -31.75263 -63.05135 18730 ft 298 kts 297°
2026-05-03 21:42 -31.74181 -63.07204 18415 ft 297 kts 297°
2026-05-03 21:42 -31.73103 -63.09265 18068 ft 296 kts 297°
2026-05-03 21:42 -31.72028 -63.11319 17712 ft 295 kts 297°
2026-05-03 21:43 -31.70951 -63.13377 17394 ft 297 kts 297°
2026-05-03 21:43 -31.69865 -63.15453 17067 ft 300 kts 297°
2026-05-03 21:43 -31.68756 -63.17570 16755 ft 308 kts 298°
2026-05-03 21:43 -31.67624 -63.19727 16410 ft 312 kts 298°
2026-05-03 21:44 -31.66496 -63.21891 16078 ft 309 kts 297°
2026-05-03 21:44 -31.65451 -63.24076 15837 ft 305 kts 295°
2026-05-03 21:44 -31.64448 -63.26264 15593 ft 304 kts 295°
2026-05-03 21:44 -31.63452 -63.28450 15358 ft 302 kts 295°
2026-05-03 21:45 -31.62466 -63.30612 15063 ft 300 kts 295°
2026-05-03 21:45 -31.61482 -63.32761 14751 ft 298 kts 296°
2026-05-03 21:45 -31.60501 -63.34896 14432 ft 297 kts 296°
2026-05-03 21:45 -31.59521 -63.37024 14108 ft 296 kts 296°
2026-05-03 21:46 -31.58543 -63.39143 13762 ft 296 kts 296°
2026-05-03 21:46 -31.57562 -63.41266 13391 ft 295 kts 296°
2026-05-03 21:46 -31.56584 -63.43377 13056 ft 294 kts 296°
2026-05-03 21:46 -31.55614 -63.45472 12725 ft 292 kts 296°
2026-05-03 21:47 -31.54645 -63.47564 12385 ft 291 kts 296°
2026-05-03 21:47 -31.53678 -63.49649 12079 ft 290 kts 296°
2026-05-03 21:47 -31.52721 -63.51710 12039 ft 287 kts 296°
2026-05-03 21:47 -31.51770 -63.53758 12008 ft 283 kts 296°
2026-05-03 21:48 -31.50846 -63.55745 11989 ft 271 kts 296°
2026-05-03 21:48 -31.49963 -63.57642 11654 ft 271 kts 296°
2026-05-03 21:48 -31.49034 -63.59646 10919 ft 288 kts 296°
2026-05-03 21:48 -31.48070 -63.61723 10406 ft 294 kts 297°
2026-05-03 21:49 -31.47098 -63.63810 10171 ft 289 kts 297°
2026-05-03 21:49 -31.46147 -63.65856 9928 ft 284 kts 295°
2026-05-03 21:49 -31.45662 -63.68022 9735 ft 275 kts 271°
2026-05-03 21:49 -31.45810 -63.70268 9377 ft 275 kts 264°
2026-05-03 21:50 -31.46077 -63.72448 9160 ft 266 kts 263°
2026-05-03 21:50 -31.46373 -63.74599 8633 ft 274 kts 263°
2026-05-03 21:50 -31.46695 -63.76797 8268 ft 275 kts 262°
2026-05-03 21:50 -31.47013 -63.79000 7963 ft 274 kts 263°
2026-05-03 21:51 -31.47346 -63.81188 7682 ft 272 kts 263°
2026-05-03 21:51 -31.47477 -63.83357 7370 ft 265 kts 283°
2026-05-03 21:51 -31.47028 -63.85423 7122 ft 260 kts 288°
2026-05-03 21:51 -31.46573 -63.87468 6849 ft 259 kts 287°
2026-05-03 21:52 -31.46156 -63.89512 6568 ft 258 kts 286°
2026-05-03 21:52 -31.45769 -63.91559 6287 ft 257 kts 286°
2026-05-03 21:52 -31.45442 -63.93612 6003 ft 257 kts 282°
2026-05-03 21:52 -31.45258 -63.95683 5755 ft 254 kts 280°
2026-05-03 21:53 -31.45102 -63.97733 5502 ft 251 kts 280°
2026-05-03 21:53 -31.44944 -63.99759 5258 ft 248 kts 281°
2026-05-03 21:53 -31.44782 -64.01757 5066 ft 243 kts 281°
2026-05-03 21:53 -31.44621 -64.03689 5004 ft 233 kts 281°
2026-05-03 21:54 -31.44464 -64.05530 4991 ft 221 kts 280°
2026-05-03 21:54 -31.44311 -64.07271 4979 ft 210 kts 280°
2026-05-03 21:54 -31.44161 -64.08965 4984 ft 209 kts 281°
2026-05-03 21:54 -31.44010 -64.10646 5009 ft 205 kts 280°
2026-05-03 21:55 -31.43867 -64.12261 5008 ft 193 kts 281°
2026-05-03 21:55 -31.43733 -64.13779 4844 ft 183 kts 281°
2026-05-03 21:55 -31.43599 -64.15255 4452 ft 182 kts 283°
2026-05-03 21:55 -31.43109 -64.16564 3967 ft 177 kts 317°
2026-05-03 21:56 -31.42473 -64.17129 3752 ft 171 kts 332°
2026-05-03 21:56 -31.41455 -64.17841 3452 ft 170 kts 332°
2026-05-03 21:56 -31.40437 -64.18555 3229 ft 169 kts 333°
2026-05-03 21:56 -31.39451 -64.19246 2995 ft 163 kts 333°
2026-05-03 21:57 -31.38493 -64.19913 2770 ft 159 kts 334°
2026-05-03 21:57 -31.37537 -64.20574 2569 ft 163 kts 338°
2026-05-03 21:57 -31.36441 -64.20795 2435 ft 159 kts
2026-05-03 21:57 -31.35370 -64.20746 2154 ft 150 kts
2026-05-03 21:58 -31.34392 -64.20781 1964 ft 132 kts
2026-05-03 21:58 -31.33476 -64.20794 1822 ft 132 kts
2026-05-03 21:58 -31.32625 -64.20812 1662 ft 120 kts
2026-05-03 21:58 -31.31868 -64.20819 1618 ft 85 kts 358°
2026-05-03 21:59 -31.31523 -64.20831 1618 ft 27 kts 352°
2026-05-03 21:59 -31.31467 -64.20901 1613 ft 0 kts 274°
2026-05-03 21:59 -31.31467 -64.20903 1613 ft 0 kts 274°
2026-05-03 21:59 -31.31467 -64.20904 1613 ft 0 kts 274°
2026-05-03 22:00 -31.31467 -64.20905 1613 ft 0 kts 274°
2026-05-03 22:00 -31.31467 -64.20909 1613 ft 0 kts 274°
2026-05-03 22:00 -31.31467 -64.20912 1613 ft 0 kts 274°
2026-05-03 22:00 -31.31467 -64.20916 1620 ft 1 kts 274°
2026-05-03 22:01 -31.31466 -64.20917 1619 ft 0 kts 274°
2026-05-03 22:01 -31.31466 -64.20918 1619 ft 0 kts 274°
2026-05-03 22:01 -31.31466 -64.20921 1618 ft 1 kts 274°
2026-05-03 22:01 -31.31466 -64.20928 1616 ft 1 kts 274°
2026-05-03 22:02 -31.31465 -64.20944 1612 ft 3 kts 275°
2026-05-03 22:02 -31.31465 -64.20976 1612 ft 5 kts 263°
2026-05-03 22:02 -31.31475 -64.21022 1619 ft 7 kts 246°
2026-05-03 22:02 -31.31502 -64.21070 1617 ft 7 kts 237°
2026-05-03 22:03 -31.31511 -64.21113 1613 ft 5 kts 267°
2026-05-03 22:03 -31.31513 -64.21140 1612 ft 2 kts 268°
2026-05-03 22:03 -31.31513 -64.21156 1615 ft 2 kts 269°
2026-05-03 22:03 -31.31513 -64.21165 1616 ft 0 kts 270°
2026-05-03 22:04 -31.31513 -64.21166 1616 ft 0 kts 270°